Location: Guadanolo
(41.9167°N, 12.9333°E)
Time: 13:45:45
(UTC+00:00)

NOSS 3-3 (A) - Pass Details

Date: 16 September 2019
Orbit: 849 x 1363 km, 63.4° (Epoch: 08 October)

Event Time Altitude Azimuth Distance (km) Brightness Sun altitude
Rises 17:47:30 0° 209° (SSW) 3,429 7.1 -6.5°
Reaches altitude 10° 17:49:53 10° 208° (SSW) 2,525 6.4 -6.9°
Maximum altitude 17:55:42 78° 123° (ESE) 956 3.9 -8.0°
Drops below altitude 10° 18:02:13 10° 38° (NE) 2,811 6.2 -9.2°
Sets 18:04:59 0° 37° (NE) 3,845 6.9 -9.7°
